[TLELIST] Archives

 

Current TLEs

May 29th 2008 PST

HST 1 20580U 90037B 08148.92246118 +.00000300 +00000-0 +10355-4 0 01621 2 20580 028.4678 095.4012 0003980 170.8135 189.2526 15.00381154791938 ISS (ZARYA) 1 25544U 98067A 08148.94315948 +.00008789 +00000-0 +58086-4 0 05555 2 25544 051.6374 120.7547 0005399 266.5972 134.3928 15.76514534545338 CXO 1 25867U 99040B 08149.04166667 +.00000557 +00000-0 +10000-3 0 02037 2 25867 063.6724 081.0456 6801232 279.1350 355.4955 00.37807499003557 ____________________________________________________________________ These 2-Line ...Continue Reading

Current TLEs

May 28th 2008 PST

HST 1 20580U 90037B 08149.18853651 .00000303 00000-0 10604-4 0 1457 2 20580 028.4678 093.6641 0004006 172.8235 187.2418 15.00381261791970 ISS (ZARYA) 1 25544U 98067A 08149.34349925 .00008525 00000-0 56449-4 0 5584 2 25544 051.6367 118.6916 0005339 268.2713 246.3609 15.76520431545391 CXO 1 25867U 99040B 08149.04166667 +.00000557 +00000-0 +10000-3 0 02037 2 25867 063.6724 081.0456 6801232 279.1350 355.4955 00.37807499003557 ____________________________________________________________________ These 2-Line ...Continue Reading

Current TLEs

May 27th 2008 PST

HST 1 20580U 90037B 08147.32600867 .00000324 00000-0 12247-4 0 1447 2 20580 028.4676 105.8126 0003965 153.6905 206.3886 15.00380836791694 ISS (ZARYA) 1 25544U 98067A 08148.32696205 .00008853 00000-0 58504-4 0 5530 2 25544 051.6374 123.9321 0005440 263.3325 238.1068 15.76503070545237 CXO 1 25867U 99040B 08146.41666667 +.00000490 +00000-0 +10000-3 0 02025 2 25867 063.6596 081.1016 6796408 279.1458 358.1803 00.37806132003548 ____________________________________________________________________ These 2-Line ...Continue Reading

Current TLEs

May 26th 2008 PST

HST 1 20580U 90037B 08145.33044215 +.00000343 +00000-0 +13681-4 0 01562 2 20580 028.4675 118.8287 0003916 132.8916 227.2002 15.00380236791395 ISS (ZARYA) 1 25544U 98067A 08147.11399198 .00009347 00000-0 61599-4 0 5466 2 25544 051.6372 130.1823 0005326 257.3809 195.3561 15.76481742545047 CXO 1 25867U 99040B 08146.41666667 +.00000490 +00000-0 +10000-3 0 02025 2 25867 063.6596 081.1016 6796408 279.1458 358.1803 00.37806132003548 ____________________________________________________________________ These 2-Line ...Continue Reading

Current TLEs

May 25th 2008 PST

HST 1 20580U 90037B 08146.19518768 .00000338 00000-0 13270-4 0 1430 2 20580 028.4675 113.1886 0003930 142.4977 217.5886 15.00380514791524 ISS (ZARYA) 1 25544U 98067A 08146.09834571 .00009639 00000-0 63442-4 0 5396 2 25544 051.6369 135.4160 0005355 253.0352 191.7134 15.76462468544884 CXO 1 25867U 99040B 08143.79166667 .00000418 00000-0 10000-3 0 2017 2 25867 063.6496 081.1632 6791387 279.1645 000.8306 00.37805493 3537 ____________________________________________________________________ These 2-Line ...Continue Reading

Current TLEs

May 24th 2008 PST

HST 1 20580U 90037B 08144.33265828 .00000322 00000-0 12038-4 0 1423 2 20580 028.4675 125.3358 0003886 122.7895 237.3070 15.00379755791242 ISS (ZARYA) 1 25544U 98067A 08145.47432440 .00009883 00000-0 64978-4 0 5381 2 25544 051.6370 138.6327 0005388 249.9232 250.9626 15.76450707544789 CXO 1 25867U 99040B 08143.79166667 .00000418 00000-0 10000-3 0 2017 2 25867 063.6496 081.1632 6791387 279.1645 000.8306 00.37805493 3537 ____________________________________________________________________ These 2-Line ...Continue Reading

Current TLEs

May 23rd 2008 PST

HST 1 20580U 90037B 08142.40360793 +.00000305 +00000-0 +10770-4 0 01518 2 20580 028.4678 137.9172 0003815 102.3188 257.7828 15.00379091790956 ISS (ZARYA) 1 25544U 98067A 08143.32928241 .00008455 00000-0 56307-4 0 5260 2 25544 051.6376 149.6881 0005602 240.3546 318.8778 15.76401038544442 CXO 1 25867U 99040B 08143.79166667 .00000418 00000-0 10000-3 0 2017 2 25867 063.6496 081.1632 6791387 279.1645 000.8306 00.37805493 3537 ____________________________________________________________________ These 2-Line ...Continue Reading

Current TLEs

May 22nd 2008 PST

HST 1 20580U 90037B 08143.20183599 .00000290 00000-0 95670-5 0 1419 2 20580 028.4677 132.7117 0003800 111.3473 248.7523 15.00379192791076 ISS (ZARYA) 1 25544U 98067A 08143.32928241 .00008455 00000-0 56307-4 0 5260 2 25544 051.6376 149.6881 0005602 240.3546 318.8778 15.76401038544442 CXO 1 25867U 99040B 08141.12500000 +.00000373 +00000-0 +10000-3 0 01991 2 25867 063.6406 081.2230 6785227 279.1966 357.7918 00.37805426003523 ____________________________________________________________________ These 2-Line ...Continue Reading

Current TLEs

May 21st 2008 PST

HST 1 20580U 90037B 08141.40582250 .00000295 00000-0 99622-5 0 1401 2 20580 028.4679 144.4244 0003787 091.7769 268.3254 15.00378764790805 ISS (ZARYA) 1 25544U 98067A 08141.83745370 .00006729 00000-0 45721-4 0 5163 2 25544 051.6385 157.3764 0005587 232.5089 134.8673 15.76367601544217 CXO 1 25867U 99040B 08141.12500000 +.00000373 +00000-0 +10000-3 0 01991 2 25867 063.6406 081.2230 6785227 279.1966 357.7918 00.37805426003523 ____________________________________________________________________ These 2-Line ...Continue Reading

Current TLEs

May 20th 2008 PST

HST 1 20580U 90037B 08139.47676922 +.00000270 +00000-0 +80389-5 0 01521 2 20580 028.4682 157.0051 0003689 070.8138 289.2849 15.00378134790515 ISS (ZARYA) 1 25544U 98067A 08141.35105940 .00006502 00000-0 44332-4 0 5136 2 25544 051.6380 159.8829 0005597 230.9648 254.2995 15.76359442544134 CXO 1 25867U 99040B 08141.12500000 +.00000373 +00000-0 +10000-3 0 01991 2 25867 063.6406 081.2230 6785227 279.1966 357.7918 00.37805426003523 ____________________________________________________________________ These 2-Line ...Continue Reading
  • This mailing list is a public mailing list - anyone may join or leave, at any time.
  • This mailing list is announce-only.

International Space Station (ISS) / Hubble Space Telescope (HST) / Chandra X-Ray Observatory Orbital Data via EMAIL

Privacy Policy:

Private list